Total_Precipitation_Accumulation
0.00 0.00 0.09 0.05 0.06 0.04 0.07 0.08 0.14 0.24 0.30 0.28 0.35 0.31 0.23 0.14 0.15 0.19 0.13 0.09 0.09 0.05 0.03 0.01 0.01 0.00 0.00 0.01 0.00 0.02 0.02 0.01 0.01 0.00 0.01 0.00 0.01 0.02 0.01 0.02 0.00 0.00 0.00
0.07 0.01 0.13 0.09 0.04 0.03 0.05 0.05 0.09 0.16 0.29 0.24 0.23 0.26 0.24 0.18 0.28 0.42 0.20 0.13 0.11 0.13 0.06 0.04 0.04 0.02 0.04 0.01 0.00 0.01 0.00 0.03 0.01 0.03 0.03 0.02 0.07 0.04 0.05 0.04 0.01 0.00 0.00
0.29 0.35 0.37 0.16 0.03 0.00 0.00 0.00 0.08 0.12 0.10 0.12 0.23 0.38 0.26 0.28 0.39 0.33 0.35 0.25 0.16 0.21 0.12 0.10 0.10 0.10 0.13 0.07 0.07 0.06 0.02 0.07 0.04 0.07 0.05 0.02 0.08 0.04 0.04 0.00 0.00 0.00 0.00
0.39 0.29 0.33 0.25 0.08 0.04 0.01 0.00 0.02 0.09 0.05 0.08 0.13 0.30 0.37 0.34 0.21 0.35 0.49 0.28 0.19 0.29 0.29 0.20 0.17 0.14 0.24 0.24 0.15 0.16 0.09 0.08 0.05 0.04 0.03 0.05 0.05 0.05 0.16 0.03 0.00 0.00 0.00
0.89 0.63 0.55 0.43 0.32 0.33 0.30 0.18 0.12 0.16 0.13 0.08 0.07 0.26 0.47 0.49 0.29 0.37 0.44 0.30 0.31 0.17 0.23 0.23 0.23 0.35 0.31 0.31 0.26 0.25 0.15 0.10 0.06 0.02 0.00 0.01 0.03 0.03 0.02 0.03 0.01 0.06 0.02
0.69 0.80 0.73 0.62 0.49 0.66 0.51 0.51 0.47 0.62 0.59 0.33 0.26 0.17 0.26 0.17 0.37 0.50 0.30 0.41 0.40 0.28 0.31 0.25 0.22 0.32 0.42 0.25 0.11 0.11 0.12 0.18 0.16 0.10 0.01 0.04 0.05 0.06 0.04 0.04 0.00 0.01 0.01
0.64 0.60 0.70 0.67 0.62 0.51 0.61 0.76 0.78 0.81 0.74 0.67 0.54 0.51 0.44 0.19 0.12 0.10 0.06 0.15 0.42 0.50 0.41 0.32 0.33 0.20 0.21 0.16 0.13 0.08 0.11 0.14 0.15 0.11 0.06 0.10 0.08 0.16 0.09 0.06 0.07 0.06 0.02
0.47 0.43 0.44 0.60 0.80 0.72 0.43 0.57 0.80 0.79 0.80 0.79 0.59 0.55 0.22 0.09 0.04 0.01 0.06 0.12 0.24 0.25 0.33 0.27 0.26 0.20 0.13 0.07 0.02 0.01 0.04 0.09 0.12 0.05 0.07 0.07 0.05 0.05 0.02 0.03 0.01 0.01 0.01
0.62 0.58 0.74 0.89 0.73 0.70 0.52 0.27 0.36 0.62 0.62 0.64 0.58 0.48 0.29 0.13 0.10 0.07 0.24 0.25 0.25 0.38 0.41 0.31 0.23 0.14 0.13 0.10 0.05 0.02 0.01 0.02 0.02 0.00 0.00 0.00 0.00 0.00 0.00 0.00 0.01 0.11 0.06
0.75 0.66 0.54 0.57 0.50 0.46 0.38 0.34 0.25 0.33 0.33 0.27 0.23 0.15 0.22 0.26 0.26 0.16 0.20 0.30 0.21 0.21 0.17 0.12 0.09 0.05 0.05 0.06 0.03 0.01 0.00 0.02 0.02 0.01 0.01 0.00 0.00 0.00 0.00 0.00 0.02 0.05 0.04
1.46 1.21 0.73 0.56 0.50 0.49 0.46 0.50 0.51 0.41 0.28 0.15 0.14 0.16 0.28 0.29 0.19 0.16 0.10 0.09 0.11 0.06 0.03 0.01 0.01 0.00 0.00 0.01 0.00 0.00 0.00 0.00 0.00 0.00 0.00 0.00 0.00 0.00 0.00 0.00 0.01 0.01 0.03
1.44 1.62 2.08 1.52 1.24 1.11 1.01 0.76 0.61 0.44 0.35 0.20 0.12 0.05 0.02 0.03 0.04 0.02 0.01 0.01 0.02 0.02 0.02 0.00 0.00 0.00 0.00 0.00 0.00 0.00 0.00 0.00 0.00 0.00 0.00 0.00 0.00 0.00 0.00 0.00 0.00 0.02 0.01
0.45 0.46 0.63 0.69 0.66 0.90 0.76 0.42 0.35 0.31 0.20 0.15 0.07 0.01 0.01 0.00 0.00 0.00 0.00 0.00 0.00 0.00 0.00 0.00 0.00 0.00 0.00 0.00 0.00 0.00 0.00 0.00 0.00 0.00 0.00 0.00 0.00 0.00 0.00 0.00 0.00 0.00 0.00
0.24 0.35 0.41 0.44 0.45 0.40 0.41 0.41 0.30 0.29 0.17 0.09 0.07 0.06 0.02 0.02 0.01 0.00 0.00 0.00 0.01 0.00 0.00 0.00 0.00 0.00 0.00 0.00 0.00 0.00 0.00 0.00 0.00 0.00 0.00 0.00 0.00 0.00 0.00 0.00 0.01 0.01 0.01
0.06 0.10 0.19 0.23 0.27 0.27 0.28 0.38 0.48 0.23 0.16 0.09 0.06 0.04 0.02 0.01 0.01 0.00 0.00 0.00 0.00 0.00 0.00 0.00 0.00 0.00 0.00 0.00 0.00 0.00 0.00 0.00 0.00 0.00 0.00 0.00 0.00 0.00 0.00 0.00 0.01 0.01 0.01
0.01 0.03 0.06 0.05 0.04 0.07 0.16 0.20 0.19 0.20 0.21 0.15 0.14 0.08 0.02 0.02 0.01 0.00 0.00 0.00 0.00 0.00 0.00 0.00 0.00 0.00 0.00 0.00 0.00 0.00 0.00 0.00 0.00 0.00 0.00 0.00 0.00 0.00 0.00 0.00 0.00 0.01 0.01
0.00 0.00 0.01 0.01 0.01 0.01 0.01 0.01 0.01 0.01 0.01 0.02 0.03 0.05 0.04 0.03 0.01 0.00 0.00 0.00 0.00 0.00 0.00 0.00 0.00 0.00 0.00 0.00 0.00 0.00 0.00 0.00 0.00 0.00 0.00 0.00 0.00 0.00 0.00 0.00 0.00 0.00 0.00
0.00 0.00 0.00 0.00 0.00 0.00 0.00 0.00 0.00 0.00 0.00 0.00 0.00 0.00 0.00 0.00 0.00 0.00 0.00 0.00 0.00 0.00 0.00 0.00 0.00 0.00 0.00 0.00 0.00 0.00 0.00 0.00 0.00 0.00 0.00 0.00 0.00 0.00 0.00 0.00 0.00 0.00 0.00
0.00 0.00 0.00 0.00 0.00 0.00 0.00 0.00 0.00 0.00 0.00 0.00 0.00 0.00 0.00 0.00 0.00 0.00 0.00 0.00 0.00 0.00 0.00 0.00 0.00 0.00 0.00 0.00 0.00 0.00 0.00 0.00 0.00 0.00 0.00 0.00 0.00 0.00 0.00 0.00 0.00 0.00 0.00
0.00 0.00 0.00 0.00 0.00 0.00 0.00 0.00 0.00 0.00 0.00 0.00 0.00 0.00 0.00 0.00 0.00 0.00 0.00 0.00 0.00 0.00 0.00 0.00 0.00 0.00 0.00 0.00 0.00 0.00 0.00 0.00 0.00 0.00 0.00 0.00 0.00 0.00 0.00 0.00 0.00 0.00 0.00
0.00 0.00 0.00 0.00 0.00 0.00 0.00 0.00 0.00 0.00 0.00 0.00 0.00 0.00 0.00 0.00 0.00 0.00 0.00 0.00 0.00 0.00 0.00 0.00 0.00 0.00 0.00 0.00 0.00 0.00 0.00 0.00 0.00 0.00 0.00 0.00 0.00 0.00 0.00 0.00 0.00 0.00 0.00
0.00 0.00 0.00 0.00 0.00 0.00 0.00 0.00 0.00 0.00 0.00 0.00 0.00 0.00 0.00 0.00 0.00 0.00 0.00 0.00 0.00 0.00 0.00 0.00 0.00 0.00 0.00 0.00 0.00 0.00 0.00 0.00 0.00 0.00 0.00 0.00 0.00 0.00 0.00 0.00 0.00 0.00 0.00
0.00 0.00 0.00 0.00 0.00 0.00 0.00 0.00 0.00 0.00 0.00 0.00 0.00 0.00 0.00 0.00 0.00 0.00 0.00 0.00 0.00 0.00 0.00 0.00 0.00 0.00 0.00 0.00 0.00 0.00 0.00 0.00 0.00 0.01 0.01 0.01 0.01 0.01 0.01 0.01 0.01 0.01 0.00
0.00 0.00 0.00 0.00 0.00 0.00 0.00 0.00 0.00 0.00 0.00 0.00 0.00 0.00 0.00 0.00 0.00 0.00 0.00 0.00 0.00 0.00 0.00 0.00 0.00 0.00 0.00 0.00 0.00 0.00 0.00 0.00 0.00 0.00 0.01 0.01 0.01 0.01 0.01 0.00 0.01 0.01 0.01
0.00 0.00 0.00 0.00 0.00 0.00 0.00 0.00 0.00 0.00 0.00 0.00 0.00 0.00 0.00 0.00 0.00 0.00 0.00 0.00 0.00 0.00 0.00 0.00 0.00 0.00 0.00 0.00 0.00 0.00 0.00 0.00 0.00 0.00 0.00 0.00 0.00 0.00 0.00 0.00 0.00 0.00 0.00
0.02 0.01 0.01 0.00 0.00 0.00 0.00 0.00 0.00 0.00 0.00 0.00 0.00 0.00 0.00 0.00 0.00 0.00 0.00 0.00 0.00 0.00 0.00 0.00 0.00 0.00 0.00 0.00 0.00 0.00 0.00 0.00 0.00 0.00 0.00 0.00 0.00 0.00 0.00 0.00 0.00 0.00 0.00